COSMOS 1275 DEB, 12697

Orbit data source: Space-Track

COSMOS 1275 DEB, 12697 is space debris in LEO originally from a launch on Thu, 04 Jun 1981 UTC launched from the Plesetsk Missile And Space Complex (PKMTR). Debris objects in space refer to the collection of defunct objects orbiting the Earth. Examples of debris include non-operational satellites, rocket bodies, and fragments generated from explosions, collisions, or faulty payload assembly.

Loading next visibility...
Identifier
12697, 1981-053AR
Orbit
LEO
Country
Flag of CISCIS
Related business
Manufacturer
Unknown
Mission
Spacecraft
Bus & Motor
Unknown
Mass
Unknown
Launch date (UTC)
1981-06-04 (45 years ago)
Launch vehicle
Unknown
Launch site
Plesetsk Missile And Space Complex (PKMTR)
Object type
Payload
Rocket body
Debris
Shape & HBR
Unknown shape, 0.1 m
Radar Cross Section
Medium (>0.1 m² and <1 m²)

Expand to show TLE details & history
Last TLE update: 7 hours ago

TLE from 7 hours ago
0 COSMOS 1275 DEB
1 12697U 81053AR  26254.62601569  .00000602  00000-0  53245-3 0  9996
2 12697  82.7780 312.1299 0082112 292.4598 222.1420 13.82125950258733
Epoch: 2026-09-11T15:01Z
TLE epoch observation values (Epoch: 2026-09-11T15:01:27.755Z)
Latitude
25.83446°
Longitude
-87.38166°
Altitude
1,004.374 km
Speed
7.329 km/s
True Right ascension
08h 34m 31s
True Declination
25° 42' 16"
Sunlit
Object was in daylight at epoch
Visualization orbit readout
Latitude
Unknown
Longitude
Unknown
Altitude
Unknown
Speed
Unknown
Apparent Right ascension
Unknown
Apparent Declination
Unknown
Sunlit
N/A
Visualization observer readout
Local Sidereal Time
14:44:49
Azimuth
Unknown
Elevation
Unknown
Doppler factor
Unknown
Orbital elements
Apogee altitude
1,013.703 km
Perigee altitude
893.299 km
Semi-major axis
7,331.638 km
Eccentricity
0.00821
Inclination
82.778°
RAAN
312.1299°
Arg. of periapsis
292.4598°
True anomaly
221.51544°
Mean anomaly
222.142°
Eccentric anomaly
221.82825°
Mean motion
3.45734 °/min
Orbital period
104.13 mins
BSTAR
0.00053245
Loading maneuver chart data...
Computing Atmospheric mass density...
Loading historical data...
Loading historical data...
Loading historical data...
Loading historical data...
Loading historical data...
Loading historical data...
Loading historical data...

Documentation

Showing up to 5 results
|